User: anonymous   Login
Location: Aressy
(43.2833°N, 0.3167°W)
Time: 03:31:05
(UTC+00:00)
Language:

Cosmos 2297 - Orbit

View from above orbital plane
View from above orbital plane
View from above satellite
View from above satellite

Ground track
Ground track

The orbit data is extracted from the following two-line orbital elements,

1 23404U 94077A   21106.76074766  .00000271  00000-0  16872-3 0  9990
2 23404  71.0150 243.1116 0015812 190.0298 170.0511 14.13552019361841
Epoch (UTC): 16 April 2021 18:15:28
Eccentricity: 0.0015812
inclination: 71.0150°
perigee height: 836 km
apogee height: 858 km
right ascension of ascending node: 243.1116°
argument of perigee: 190.0298°
revolutions per day: 14.13552019
mean anomaly at epoch: 170.0511°
orbit number at epoch: 36184

The dashed part of the orbit path shows where the satellite is in the earth's shadow,  

DLR